{"data":{"norad_id":66869,"epoch":"2026-09-20T20:56:05.944128Z","epoch_age_seconds":52281,"freshness":"FRESH","line1":"1 66869U 25281X   26263.87229102  .00009957  00000+0  37074-3 0  9996","line2":"2 66869  43.0036 321.4036 0000774 276.7869  83.2895 15.27590550 46021","mean_motion":15.2759055,"eccentricity":7.74e-5,"inclination_deg":43.0036,"raan_deg":321.4036,"arg_perigee_deg":276.7869,"mean_anomaly_deg":83.2895,"bstar":0.00037074,"rev_number":4602,"period_min":94.26609767912,"perigee_km":482.48645236738,"apogee_km":483.54855908486,"semimajor_km":6861.1545057261,"source":"CELESTRAK","updated_at":"2026-09-21T09:00:36.030099Z"}}